Hourly Weather Celigow

Today, 23 June, Wednesday

Time Temperature Precipitation Wind Pressure Humidity
00:00 +21°C° 0.1 mm 1 mps 746 mmHg 94%
01:00 +20°C° 0 mm 2 mps 746 mmHg 94%
02:00 +20°C° 0 mm 2 mps 746 mmHg 96%
03:00 +19°C° 0 mm 2 mps 746 mmHg 97%
04:00 +19°C° 0 mm 2 mps 747 mmHg 98%
05:00 +20°C° 0 mm 2 mps 747 mmHg 95%
06:00 +21°C° 0 mm 2 mps 747 mmHg 93%
07:00 +21°C° 0 mm 2 mps 748 mmHg 90%
08:00 +23°C° 0 mm 2 mps 748 mmHg 87%
09:00 +23°C° 0 mm 2 mps 749 mmHg 84%
10:00 +24°C° 0 mm 2 mps 749 mmHg 81%
11:00 +25°C° 0 mm 2 mps 749 mmHg 78%
12:00 +25°C° 0 mm 2 mps 749 mmHg 76%
13:00 +26°C° 0 mm 2 mps 749 mmHg 74%
14:00 +26°C° 0.1 mm 2 mps 749 mmHg 73%
15:00 +26°C° 0.1 mm 2 mps 749 mmHg 73%
16:00 +26°C° 0.1 mm 2 mps 749 mmHg 72%
17:00 +26°C° 0.5 mm 2 mps 749 mmHg 76%
18:00 +25°C° 0.5 mm 2 mps 749 mmHg 80%
19:00 +24°C° 0.5 mm 2 mps 749 mmHg 84%
20:00 +23°C° 0.3 mm 2 mps 749 mmHg 86%
21:00 +23°C° 0.3 mm 2 mps 749 mmHg 87%
22:00 +21°C° 0.3 mm 2 mps 749 mmHg 89%
23:00 +21°C° 0.1 mm 2 mps 749 mmHg 91%

Tomorrow, 24 June, Thursday

Time Temperature Precipitation Wind Pressure Humidity
00:00 +20°C° 0.1 mm 2 mps 749 mmHg 93%
01:00 +20°C° 0.1 mm 2 mps 749 mmHg 95%
02:00 +19°C° 0 mm 2 mps 749 mmHg 96%
03:00 +19°C° 0 mm 2 mps 749 mmHg 97%
04:00 +19°C° 0 mm 2 mps 748 mmHg 98%
05:00 +20°C° 0.1 mm 2 mps 748 mmHg 95%
06:00 +21°C° 0.1 mm 2 mps 748 mmHg 93%
07:00 +23°C° 0.1 mm 2 mps 748 mmHg 91%
08:00 +23°C° 0.4 mm 2 mps 748 mmHg 88%
09:00 +24°C° 0.4 mm 2 mps 748 mmHg 85%
10:00 +25°C° 0.4 mm 2 mps 748 mmHg 82%
11:00 +27°C° 0 mm 2 mps 748 mmHg 76%
12:00 +28°C° 0 mm 2 mps 748 mmHg 70%
13:00 +30°C° 0 mm 2 mps 747 mmHg 64%
14:00 +30°C° 1.1 mm 2 mps 747 mmHg 64%
15:00 +30°C° 1.1 mm 3 mps 746 mmHg 64%
16:00 +30°C° 1.1 mm 3 mps 746 mmHg 64%
17:00 +29°C° 0.4 mm 4 mps 746 mmHg 70%
18:00 +27°C° 0.4 mm 4 mps 745 mmHg 76%
19:00 +26°C° 0.4 mm 5 mps 745 mmHg 82%
20:00 +23°C° 0.5 mm 5 mps 745 mmHg 87%
21:00 +22°C° 0.5 mm 4 mps 746 mmHg 91%
22:00 +20°C° 0.5 mm 3 mps 747 mmHg 95%
23:00 +19°C° 0 mm 3 mps 746 mmHg 96%

Day after tomorrow, 25 June, Friday

Time Temperature Precipitation Wind Pressure Humidity
00:00 +18°C° 0 mm 3 mps 746 mmHg 96%
01:00 +17°C° 0 mm 2 mps 746 mmHg 97%
02:00 +17°C° 0.1 mm 2 mps 746 mmHg 97%
03:00 +17°C° 0.1 mm 2 mps 746 mmHg 96%
04:00 +17°C° 0.1 mm 2 mps 746 mmHg 96%
05:00 +17°C° 0.4 mm 3 mps 746 mmHg 94%
06:00 +18°C° 0.4 mm 3 mps 746 mmHg 92%
07:00 +18°C° 0.4 mm 4 mps 746 mmHg 90%
08:00 +19°C° 0.2 mm 3 mps 746 mmHg 87%
09:00 +20°C° 0.2 mm 3 mps 747 mmHg 84%
10:00 +21°C° 0.2 mm 3 mps 747 mmHg 81%
11:00 +21°C° 0.1 mm 4 mps 747 mmHg 79%
12:00 +21°C° 0.1 mm 4 mps 747 mmHg 76%
13:00 +21°C° 0.1 mm 5 mps 747 mmHg 74%
14:00 +21°C° 0 mm 5 mps 747 mmHg 74%
15:00 +21°C° 0 mm 5 mps 747 mmHg 73%
16:00 +21°C° 0 mm 5 mps 747 mmHg 73%
17:00 +20°C° 0 mm 5 mps 747 mmHg 77%
18:00 +19°C° 0 mm 5 mps 747 mmHg 81%
19:00 +17°C° 0 mm 5 mps 747 mmHg 84%
20:00 +16°C° 0 mm 5 mps 747 mmHg 86%
21:00 +17°C° 0 mm 4 mps 747 mmHg 87%
22:00 +15°C° 0 mm 4 mps 748 mmHg 88%
23:00 +15°C° 0 mm 5 mps 748 mmHg 88%

26 June, Saturday

Time Temperature Precipitation Wind Pressure Humidity
00:00 +15°C° 0 mm 5 mps 747 mmHg 89%
01:00 +15°C° 0 mm 6 mps 747 mmHg 89%
02:00 +15°C° 0.1 mm 6 mps 748 mmHg 90%
03:00 +14°C° 0.1 mm 6 mps 748 mmHg 91%
04:00 +14°C° 0.1 mm 6 mps 748 mmHg 93%
05:00 +15°C° 0 mm 5 mps 748 mmHg 91%
06:00 +15°C° 0 mm 5 mps 749 mmHg 89%
07:00 +15°C° 0 mm 5 mps 749 mmHg 87%
08:00 +16°C° 0 mm 5 mps 749 mmHg 82%
09:00 +16°C° 0 mm 5 mps 749 mmHg 77%
10:00 +17°C° 0 mm 5 mps 750 mmHg 72%
11:00 +19°C° 0 mm 5 mps 750 mmHg 71%
12:00 +20°C° 0 mm 4 mps 750 mmHg 69%
13:00 +21°C° 0 mm 4 mps 750 mmHg 67%
14:00 +21°C° 0.3 mm 4 mps 749 mmHg 67%
15:00 +21°C° 0.3 mm 4 mps 749 mmHg 66%
16:00 +22°C° 0.3 mm 3 mps 749 mmHg 66%
17:00 +21°C° 0.1 mm 3 mps 749 mmHg 69%
18:00 +20°C° 0.1 mm 3 mps 749 mmHg 73%
19:00 +20°C° 0.1 mm 2 mps 749 mmHg 76%
20:00 +19°C° 0 mm 2 mps 749 mmHg 77%
21:00 +17°C° 0 mm 2 mps 749 mmHg 77%
22:00 +16°C° 0 mm 3 mps 749 mmHg 78%
23:00 +16°C° 0 mm 2 mps 750 mmHg 78%

27 June, Sunday

Time Temperature Precipitation Wind Pressure Humidity
00:00 +16°C° 0 mm 2 mps 750 mmHg 79%
01:00 +15°C° 0 mm 2 mps 750 mmHg 80%
02:00 +15°C° 0 mm 2 mps 750 mmHg 81%
03:00 +15°C° 0 mm 2 mps 750 mmHg 83%
04:00 +14°C° 0 mm 2 mps 750 mmHg 85%
05:00 +16°C° 0 mm 2 mps 750 mmHg 80%
06:00 +18°C° 0 mm 2 mps 750 mmHg 75%
07:00 +20°C° 0 mm 2 mps 750 mmHg 70%
08:00 +21°C° 0 mm 2 mps 750 mmHg 65%
09:00 +23°C° 0 mm 2 mps 750 mmHg 60%
10:00 +24°C° 0 mm 2 mps 750 mmHg 55%
11:00 +25°C° 0 mm 2 mps 750 mmHg 52%
12:00 +26°C° 0 mm 2 mps 750 mmHg 48%
13:00 +26°C° 0 mm 2 mps 750 mmHg 45%
14:00 +27°C° 0 mm 2 mps 750 mmHg 45%
15:00 +27°C° 0 mm 2 mps 750 mmHg 45%
16:00 +27°C° 0 mm 2 mps 750 mmHg 44%
17:00 +26°C° 0 mm 2 mps 750 mmHg 50%
18:00 +25°C° 0 mm 1 mps 749 mmHg 56%
19:00 +23°C° 0 mm 1 mps 749 mmHg 62%
20:00 +22°C° 0 mm 1 mps 749 mmHg 65%
21:00 +21°C° 0 mm 1 mps 750 mmHg 67%
22:00 +19°C° 0 mm 1 mps 750 mmHg 69%
23:00 +19°C° 0 mm 1 mps 750 mmHg 70%

28 June, Monday

Time Temperature Precipitation Wind Pressure Humidity
00:00 +19°C° 0 mm 1 mps 750 mmHg 71%
01:00 +18°C° 0 mm 1 mps 750 mmHg 72%
02:00 +18°C° 0 mm 1 mps 750 mmHg 73%
03:00 +18°C° 0 mm 1 mps 750 mmHg 74%
04:00 +17°C° 0 mm 2 mps 750 mmHg 75%
05:00 +19°C° 0 mm 2 mps 750 mmHg 71%
06:00 +20°C° 0 mm 2 mps 750 mmHg 66%
07:00 +23°C° 0 mm 2 mps 750 mmHg 62%
08:00 +25°C° 0 mm 2 mps 750 mmHg 57%
09:00 +26°C° 0 mm 2 mps 750 mmHg 52%
10:00 +27°C° 0 mm 2 mps 750 mmHg 47%
11:00 +28°C° 0 mm 1 mps 749 mmHg 46%
12:00 +29°C° 0 mm 1 mps 749 mmHg 44%
13:00 +29°C° 0 mm 1 mps 749 mmHg 43%
14:00 +29°C° 0 mm 1 mps 749 mmHg 45%
15:00 +29°C° 0 mm 1 mps 749 mmHg 47%
16:00 +28°C° 0 mm 1 mps 749 mmHg 49%
17:00 +27°C° 0 mm 1 mps 748 mmHg 57%
18:00 +26°C° 0 mm 2 mps 748 mmHg 64%
19:00 +24°C° 0 mm 3 mps 748 mmHg 71%
20:00 +23°C° 0 mm 2 mps 748 mmHg 73%
21:00 +21°C° 0 mm 2 mps 748 mmHg 76%
22:00 +20°C° 0 mm 2 mps 748 mmHg 78%
23:00 +19°C° 0 mm 2 mps 748 mmHg 79%
Show more

We Need Your Consent

Meteoprog and our Service Providers may store and access personal data such as cookies, device identifiers or other similar technologies on your device and process such data to personalise content and ads, as well as provide social media features and to analyse the traffic.

  • Store and/or access information on your device

    Cookies, device identifiers or other information can be stored or accessed on your device for the purposes indicated above.

  • Personalised ads and content, ad and content measurement, audience insights, and products development

    Ads and content can be personalised based on a profile. More data can be added to better personalise ads and content. Ad and content performance can be measured. Insights about the audience who saw the ads and content can be derived. Such data can be used to develop or improve user’s experience, systems and software.

By clicking ‘I Agree’ you will allow the use of indicated cookies, device identifiers, web beacons or other similar technologies. Your settings can be changed in the browser on your device.

For certain purposes, legitimate interests may be relied on, rather than consent. You can read more about this in our Privacy and Cookie Policy.